EW0725 Weather Reports


Display with metric or nautical units.
time (UTC)temp
F
wind
direction
speed
MPH
gust
MPH
rain 1hr
in
rain 24hr
in
rain mn
in
humidity
%
barometer
mb
20260506133902 49 159 3.0 4.0 0.00 0.00 0.07 91 1009.6
20260506133401 49 172 4.0 5.0 0.00 0.00 0.07 92 1009.7
20260506132902 49 88 2.0 4.0 0.00 0.00 0.07 90 1009.6
20260506132404 49 127 3.0 4.0 0.00 0.00 0.07 91 1009.7
20260506131902 49 174 4.0 5.0 0.00 0.00 0.07 92 1009.6
20260506131401 49 161 4.0 5.0 0.00 0.00 0.07 92 1009.7
20260506130904 49 155 3.0 4.0 0.00 0.00 0.07 92 1009.7
20260506130404 49 189 3.0 4.0 0.00 0.00 0.07 91 1009.6
20260506125904 49 194 3.0 4.0 0.00 0.00 0.07 91 1009.6
20260506125402 49 157 3.0 4.0 0.00 0.00 0.07 91 1009.6
20260506124901 49 149 2.0 4.0 0.00 0.00 0.07 91 1009.6
20260506124404 49 157 3.0 5.0 0.00 0.00 0.07 93 1009.5
20260506123902 49 129 2.0 4.0 0.01 0.00 0.07 92 1009.5
20260506123402 49 128 2.0 3.0 0.01 0.00 0.06 90 1009.5
20260506122903 49 136 2.0 3.0 0.02 0.00 0.06 90 1009.4
20260506122402 49 179 4.0 5.0 0.00 0.00 0.06 91 1009.4
20260506121906 49 162 4.0 4.0 0.00 0.00 0.06 92 1009.4
20260506121403 49 186 3.0 4.0 0.00 0.00 0.06 91 1009.4
20260506120902 49 156 2.0 3.0 0.00 0.00 0.06 90 1009.4
20260506120405 49 162 4.0 4.0 0.00 0.00 0.06 90 1009.4
20260506115902 49 178 4.0 4.0 0.00 0.00 0.06 90 1009.3
20260506115401 49 217 2.0 3.0 0.00 0.00 0.06 90 1009.2
20260506114903 49 127 4.0 6.0 0.00 0.00 0.06 90 1009.2
20260506114401 49 152 3.0 4.0 0.00 0.00 0.06 91 1009.2
20260506113904 49 151 3.0 4.0 0.00 0.00 0.06 92 1009.2
20260506113402 49 166 4.0 6.0 0.02 0.00 0.06 92 1009.2
20260506112904 49 183 3.0 4.0 0.01 0.00 0.06 93 1009.2
20260506112401 49 118 4.0 6.0 0.02 0.00 0.06 92 1009.1
20260506111904 49 162 3.0 5.0 0.02 0.00 0.06 93 1009.0
20260506111405 49 173 4.0 5.0 0.04 0.00 0.06 94 1009.0
20260506110901 49 142 4.0 4.0 0.03 0.00 0.05 93 1009.0
20260506110401 49 160 3.0 4.0 0.00 0.00 0.05 94 1009.0
20260506105903 49 169 3.0 4.0 0.00 0.00 0.05 94 1008.9
20260506105405 49 190 3.0 4.0 0.00 0.00 0.05 93 1008.9
20260506104903 49 183 3.0 4.0 0.00 0.00 0.05 94 1008.9
20260506104403 49 172 3.0 3.0 0.00 0.00 0.05 94 1008.8
20260506103903 49 166 3.0 4.0 0.00 0.00 0.05 95 1008.8
20260506103403 49 173 4.0 4.0 0.00 0.00 0.05 95 1008.9
20260506102904 49 158 3.0 4.0 0.00 0.00 0.05 95 1008.8
20260506102403 49 182 4.0 4.0 0.00 0.00 0.05 96 1008.8
20260506101904 48 171 3.0 3.0 0.00 0.00 0.05 96 1008.7
20260506101401 48 188 3.0 3.0 0.01 0.00 0.05 96 1008.7
20260506100902 48 232 2.0 3.0 0.01 0.00 0.05 96 1008.7
20260506100403 48 203 2.0 3.0 0.00 0.00 0.05 96 1008.7
20260506095902 48 307 2.0 2.0 0.00 0.00 0.05 96 1008.7
20260506095404 48 120 2.0 3.0 0.00 0.00 0.05 96 1008.7
20260506094901 48 150 2.0 3.0 0.00 0.00 0.05 96 1008.7
20260506094404 48 176 3.0 3.0 0.00 0.00 0.05 96 1008.7
20260506093904 48 148 3.0 4.0 0.00 0.00 0.05 96 1008.6
20260506093401 48 1 1.0 2.0 0.00 0.00 0.05 96 1008.6
20260506092903 48 190 3.0 4.0 0.00 0.00 0.05 96 1008.6
20260506092402 48 303 2.0 3.0 0.00 0.00 0.05 96 1008.5
20260506091904 48 299 2.0 2.0 0.00 0.00 0.05 96 1008.5
20260506091401 48 169 2.0 3.0 0.00 0.00 0.05 96 1008.5
20260506090902 48 336 1.0 1.0 0.00 0.00 0.05 96 1008.5
20260506090401 47 328 2.0 3.0 0.00 0.00 0.05 96 1008.5
20260506085901 47 52 2.0 3.0 0.00 0.00 0.05 96 1008.5
20260506085402 47 171 2.0 4.0 0.00 0.00 0.05 96 1008.5
20260506084903 47 321 2.0 2.0 0.00 0.00 0.05 96 1008.4
20260506084404 47 127 2.0 3.0 0.01 0.00 0.05 96 1008.4
20260506083903 47 186 3.0 3.0 0.00 0.00 0.05 96 1008.4
20260506083401 47 217 2.0 3.0 0.00 0.00 0.05 96 1008.4
20260506082904 47 178 2.0 2.0 0.00 0.00 0.05 96 1008.4
20260506082402 47 126 2.0 3.0 0.00 0.00 0.05 96 1008.3
20260506081901 47 336 1.0 1.0 0.00 0.00 0.05 96 1008.3
20260506081402 47 335 1.0 2.0 0.00 0.00 0.05 96 1008.3
20260506080901 47 219 2.0 3.0 0.00 0.00 0.05 96 1008.3
20260506080402 47 345 1.0 1.0 0.00 0.00 0.05 96 1008.2
20260506073404 46 337 1.0 1.0 0.01 0.00 0.04 96 1008.1
20260506072902 46 271 2.0 3.0 0.00 0.00 0.04 96 1008.2
20260506072403 46 190 2.0 4.0 0.00 0.00 0.04 96 1008.2
20260506071903 46 164 2.0 4.0 0.00 0.00 0.04 96 1008.1
20260506071402 46 106 4.0 5.0 0.00 0.00 0.04 95 1008.0
20260506070901 46 176 3.0 3.0 0.00 0.00 0.04 95 1008.0
20260506070403 46 145 2.0 3.0 0.00 0.00 0.04 95 1007.9
20260506062401 46 176 3.0 4.0 0.01 0.00 0.04 95 1007.8
20260506061901 46 200 3.0 3.0 0.01 0.00 0.04 95 1007.7
20260506061401 46 97 3.0 4.0 0.02 0.00 0.04 95 1007.7
20260506060901 47 189 3.0 4.0 0.03 0.00 0.04 95 1007.7
20260506060401 47 143 2.0 3.0 0.04 0.00 0.03 95 1007.7
20260506051402 48 288 2.0 3.0 0.00 0.00 0.03 95 1007.4
20260506050902 48 340 1.0 1.0 0.00 0.00 0.03 95 1007.4
20260506050403 48 220 2.0 2.0 0.00 0.00 0.03 95 1007.4
20260506044902 48 213 2.0 2.0 0.00 0.00 0.03 95 1007.4
20260506044402 48 336 1.0 1.0 0.00 0.00 0.03 95 1007.4
20260506043901 48 276 1.0 2.0 0.00 0.00 0.03 95 1007.4
20260506043403 48 288 1.0 2.0 0.00 0.00 0.03 95 1007.4
20260506042901 48 327 1.0 1.0 0.00 0.00 0.03 95 1007.4
20260506042402 48 189 2.0 3.0 0.00 0.00 0.03 95 1007.3
20260506041902 47 336 1.0 1.0 0.00 0.00 0.03 95 1007.4
20260506041403 47 320 1.0 2.0 0.00 0.00 0.02 95 1007.4
20260506040902 47 331 1.0 1.0 0.00 0.00 0.02 95 1007.4
20260506040402 47 329 1.0 1.0 0.00 0.00 0.02 95 1007.4
20260506035902 47 320 1.0 1.0 0.01 0.00 0.02 95 1007.4
20260506035401 47 270 1.0 2.0 0.01 0.00 0.02 95 1007.4
20260506034902 47 327 1.0 1.0 0.01 0.00 0.02 95 1007.4
20260506034401 47 248 1.0 2.0 0.00 0.00 0.02 95 1007.5
20260506033901 47 225 2.0 2.0 0.00 0.00 0.02 95 1007.5
20260506033402 47 277 1.0 2.0 0.00 0.00 0.02 95 1007.6
20260506032902 47 188 3.0 3.0 0.00 0.00 0.02 95 1007.6
20260506032402 47 330 1.0 1.0 0.00 0.00 0.02 95 1007.6
20260506031902 47 178 3.0 3.0 0.00 0.00 0.02 95 1007.6
20260506031404 47 213 2.0 3.0 0.01 0.00 0.02 95 1007.6
20260506030903 47 217 2.0 2.0 0.00 0.00 0.02 95 1007.7
20260506030402 47 323 1.0 2.0 0.00 0.00 0.02 95 1007.7
20260506025903 47 239 2.0 3.0 0.01 0.00 0.02 95 1007.7
20260506025402 47 208 2.0 3.0 0.01 0.00 0.02 95 1007.7
20260506024901 47 205 2.0 3.0 0.01 0.00 0.02 95 1007.7
20260506024402 48 198 2.0 3.0 0.01 0.00 0.02 95 1007.8
20260506023901 48 331 1.0 1.0 0.01 0.00 0.02 95 1007.8
20260506023401 48 5 2.0 2.0 0.02 0.00 0.02 95 1007.8
20260506022902 48 315 1.0 1.0 0.02 0.00 0.02 95 1007.9
20260506022402 48 255 1.0 2.0 0.01 0.00 0.02 95 1007.9
20260506021902 48 328 1.0 1.0 0.00 0.00 0.01 95 1008.0
20260506021404 48 326 1.0 1.0 0.01 0.00 0.01 95 1008.1
20260506020901 48 332 1.0 1.0 0.02 0.00 0.01 95 1008.1
20260506020404 48 20 2.0 2.0 0.01 0.00 0.01 95 1008.1
20260506015902 48 346 1.0 1.0 0.00 0.00 0.01 95 1008.1
20260506015402 48 0 1.0 1.0 0.01 0.00 0.01 95 1008.2
20260506014902 48 156 2.0 3.0 0.00 0.00 0.01 95 1008.2
20260506014401 48 60 1.0 2.0 0.00 0.00 0.01 95 1008.2
20260506013901 48 190 2.0 3.0 0.00 0.00 0.01 95 1008.3
20260506013403 48 173 2.0 3.0 0.00 0.00 0.01 95 1008.3
20260506012901 48 335 1.0 2.0 0.01 0.00 0.01 95 1008.3
20260506012403 48 160 3.0 4.0 0.01 0.00 0.01 95 1008.3
20260506011904 48 289 1.0 2.0 0.01 0.00 0.01 95 1008.4
20260506011402 48 271 2.0 3.0 0.01 0.00 0.01 95 1008.4
20260506010901 48 189 2.0 3.0 0.01 0.00 0.01 95 1008.4
20260506010402 48 320 2.0 3.0 0.01 0.00 0.01 95 1008.5
20260506005902 48 264 1.0 2.0 0.01 0.00 0.01 95 1008.5
20260506005402 48 329 2.0 3.0 0.02 0.00 0.01 95 1008.6
20260506004902 48 301 2.0 3.0 0.00 0.00 0.00 95 1008.6
20260506004402 48 204 2.0 3.0 0.01 0.00 0.00 95 1008.6
20260506003901 48 333 1.0 1.0 0.01 0.00 0.00 95 1008.6
20260506003404 48 184 3.0 4.0 0.00 0.00 0.00 95 1008.6
20260506002903 48 196 3.0 3.0 0.01 0.00 0.00 95 1008.7
20260506002402 48 201 3.0 3.0 0.00 0.00 0.00 95 1008.7
20260506001907 48 202 2.0 3.0 0.00 0.00 0.00 95 1008.8
20260506001403 48 274 1.0 2.0 0.00 0.00 0.00 95 1008.8
20260506000902 49 347 2.0 2.0 0.01 0.00 0.00 95 1008.8
20260506000402 49 203 3.0 4.0 0.01 0.00 0.00 95 1008.9
20260505235903 49 297 2.0 2.0 0.01 0.00 0.00 95 1008.9
20260505235404 49 346 2.0 2.0 0.00 0.00 0.00 95 1008.9
20260505234907 49 328 2.0 3.0 0.00 0.00 0.00 95 1009.0
20260505234402 49 174 3.0 5.0 0.00 0.00 0.00 95 1009.0
20260505233901 49 342 1.0 2.0 0.00 0.00 0.00 95 1009.1
20260505233401 49 189 3.0 3.0 0.00 0.00 0.00 95 1009.1
20260505232901 49 206 2.0 3.0 0.00 0.00 0.00 95 1009.1
20260505232402 49 203 2.0 3.0 0.00 0.00 0.00 95 1009.1
20260505231902 49 216 2.0 3.0 0.00 0.00 0.00 94 1009.1
20260505231401 49 206 2.0 3.0 0.00 0.00 0.00 94 1009.1
20260505230902 49 339 2.0 3.0 0.00 0.00 0.00 94 1009.2
20260505230402 49 215 2.0 4.0 0.00 0.00 0.00 94 1009.2
20260505225901 49 199 2.0 3.0 0.00 0.00 0.00 94 1009.3
20260505225403 49 352 2.0 2.0 0.00 0.00 0.00 94 1009.3
20260505224901 49 326 1.0 2.0 0.00 0.00 0.00 94 1009.4
20260505224402 49 185 2.0 3.0 0.00 0.00 0.00 94 1009.4
20260505223902 49 337 1.0 1.0 0.00 0.00 0.00 93 1009.4
20260505223401 49 312 2.0 3.0 0.00 0.00 0.00 93 1009.4
20260505222902 49 299 2.0 3.0 0.00 0.00 0.00 93 1009.4
20260505222402 49 155 3.0 4.0 0.00 0.00 0.00 93 1009.4
20260505221902 49 332 1.0 1.0 0.00 0.00 0.00 93 1009.4
20260505221403 49 204 3.0 3.0 0.00 0.00 0.00 93 1009.5
20260505220902 49 262 2.0 4.0 0.00 0.00 0.00 93 1009.5
20260505220402 49 191 3.0 4.0 0.00 0.00 0.00 92 1009.5
20260505215902 49 158 3.0 4.0 0.00 0.00 0.21 92 1009.5
20260505215403 49 185 2.0 3.0 0.00 0.00 0.21 92 1009.5
20260505214903 49 177 3.0 4.0 0.00 0.00 0.21 92 1009.5
20260505214403 49 125 2.0 3.0 0.00 0.00 0.21 91 1009.6
20260505213903 49 192 3.0 3.0 0.00 0.00 0.21 91 1009.6
20260505213402 50 142 2.0 3.0 0.00 0.00 0.21 91 1009.6
20260505212902 50 179 3.0 4.0 0.00 0.00 0.21 91 1009.6
20260505212401 50 210 3.0 4.0 0.00 0.00 0.21 90 1009.7
20260505211902 50 200 4.0 5.0 0.00 0.00 0.21 90 1009.9
20260505211403 50 156 3.0 5.0 0.00 0.00 0.21 90 1009.9
20260505210903 50 174 4.0 5.0 0.00 0.00 0.21 89 1010.0
20260505210402 51 183 4.0 5.0 0.00 0.00 0.21 89 1010.0
20260505205647 51 177 4.0 5.0 0.00 0.00 0.21 89 1009.9
20260505205136 51 174 4.0 5.0 0.00 0.00 0.21 89 1009.9
20260505204636 51 177 4.0 5.0 0.00 0.00 0.21 89 1009.9
20260505204137 51 177 4.0 5.0 0.00 0.00 0.21 89 1009.9
20260505203636 51 167 5.0 6.0 0.00 0.00 0.21 88 1010.0
20260505203138 51 177 4.0 5.0 0.00 0.00 0.21 88 1010.0
20260505202637 51 182 4.0 4.0 0.00 0.00 0.21 88 1010.0
20260505202139 51 157 3.0 4.0 0.00 0.00 0.21 88 1009.9
20260505201638 51 174 4.0 4.0 0.00 0.00 0.21 88 1009.9
20260505201139 52 176 4.0 4.0 0.00 0.00 0.21 88 1009.9
20260505200637 52 161 3.0 4.0 0.00 0.00 0.21 88 1009.9
20260505200137 52 175 4.0 4.0 0.00 0.00 0.21 88 1009.9
20260505195636 52 186 3.0 4.0 0.00 0.00 0.21 87 1009.9
20260505195136 52 207 3.0 4.0 0.00 0.00 0.21 87 1009.9
20260505194637 52 178 3.0 4.0 0.00 0.00 0.21 87 1009.8
20260505194134 52 189 3.0 4.0 0.00 0.00 0.21 87 1009.9
20260505193636 52 173 4.0 4.0 0.00 0.00 0.21 87 1009.9
20260505193135 52 178 4.0 4.0 0.00 0.00 0.21 87 1009.8
20260505192636 52 184 3.0 4.0 0.00 0.00 0.21 86 1009.7
20260505192136 52 177 3.0 4.0 0.00 0.00 0.21 86 1009.7
20260505191638 52 176 4.0 4.0 0.00 0.00 0.21 86 1009.7
20260505191139 52 175 4.0 4.0 0.00 0.00 0.21 86 1009.6
20260505190638 52 169 3.0 4.0 0.00 0.00 0.21 86 1009.6
20260505190137 52 177 3.0 4.0 0.00 0.00 0.21 86 1009.5
20260505185637 52 182 3.0 4.0 0.00 0.00 0.21 86 1009.5
20260505185136 52 166 4.0 4.0 0.00 0.00 0.21 86 1009.5
20260505184636 52 181 3.0 4.0 0.00 0.00 0.21 86 1009.5
20260505184139 52 196 2.0 4.0 0.00 0.00 0.21 87 1009.5
20260505183636 52 193 3.0 3.0 0.00 0.00 0.21 87 1009.5
20260505183137 52 166 4.0 4.0 0.00 0.00 0.21 87 1009.4
20260505182637 52 160 3.0 3.0 0.00 0.00 0.21 87 1009.5
20260505182137 52 174 4.0 4.0 0.00 0.00 0.21 87 1009.4
20260505181637 52 181 3.0 4.0 0.00 0.00 0.21 87 1009.4
20260505181137 52 177 3.0 4.0 0.00 0.00 0.21 87 1009.5
20260505180636 53 288 2.0 3.0 0.00 0.00 0.21 87 1009.5
20260505180136 53 293 2.0 3.0 0.00 0.00 0.21 87 1009.5
20260505175636 53 173 4.0 4.0 0.00 0.00 0.21 87 1009.5
20260505175138 53 177 3.0 4.0 0.00 0.00 0.21 88 1009.5
20260505174637 53 221 2.0 4.0 0.00 0.00 0.21 88 1009.5
20260505174136 53 198 3.0 3.0 0.00 0.00 0.21 88 1009.5
20260505173637 53 225 2.0 3.0 0.00 0.00 0.21 88 1009.5
20260505173139 53 211 2.0 3.0 0.00 0.00 0.21 88 1009.6
20260505172636 53 172 3.0 4.0 0.00 0.00 0.21 88 1009.6
20260505172138 53 263 1.0 3.0 0.00 0.00 0.21 88 1009.6
20260505171637 53 189 3.0 4.0 0.00 0.00 0.21 88 1009.6
20260505171139 53 253 1.0 2.0 0.00 0.00 0.21 88 1009.6
20260505170639 53 320 1.0 1.0 0.00 0.00 0.21 88 1009.6
20260505170139 53 191 2.0 3.0 0.00 0.00 0.21 89 1009.6
20260505165638 53 268 2.0 3.0 0.00 0.00 0.21 88 1009.7
20260505165140 53 178 3.0 4.0 0.00 0.00 0.21 88 1009.7
20260505164638 53 295 2.0 2.0 0.00 0.00 0.21 88 1009.8
20260505164136 53 98 2.0 3.0 0.00 0.00 0.21 88 1009.8
20260505163634 53 189 2.0 3.0 0.00 0.00 0.21 88 1009.9
20260505163137 53 147 3.0 4.0 0.00 0.00 0.21 87 1009.9
20260505162639 53 183 2.0 3.0 0.00 0.00 0.21 88 1009.9
20260505162136 53 188 3.0 3.0 0.00 0.00 0.21 88 1009.9
20260505161637 53 205 3.0 3.0 0.00 0.00 0.21 88 1009.8
20260505161136 53 343 1.0 2.0 0.00 0.00 0.21 88 1009.8
20260505160638 53 217 2.0 3.0 0.00 0.00 0.21 88 1009.9
20260505160141 53 322 1.0 2.0 0.00 0.00 0.21 88 1009.9
20260505153142 53 223 3.0 4.0 0.00 0.00 0.21 88 1010.2
20260505152638 53 189 2.0 3.0 0.00 0.00 0.21 88 1010.2
20260505152138 53 325 2.0 2.0 0.00 0.00 0.21 88 1010.2
20260505151637 53 270 2.0 3.0 0.00 0.00 0.21 88 1010.2
20260505151137 53 173 2.0 4.0 0.00 0.00 0.21 88 1010.3
20260505150639 53 325 1.0 1.0 0.00 0.00 0.21 89 1010.3
20260505140404 53 187 2.0 4.0 0.00 0.00 0.21 88 1010.6